Tracking 17138 objects as of 7-July-2015
HD Live streaming from Space Station

NADEZHDA 3

Track NADEZHDA 3 now!
10-day predictions
NADEZHDA 3 is classified as:


NORAD ID: 21152
Int'l Code: 1991-019A
Perigee: 960.2 km
Apogee: 1,023.3 km
Inclination: 82.9 °
Period: 104.8 minutes
Semi major axis: 7362 km
RCS: 2.4675 m2 (large)
Launch date: March 12, 1991
Source: Commonwealth of Independent States (former USSR) (CIS)
Your satellite tracking list
Your tracking list is empty





NASA's NSSDC Master Catalog

Two Line Element Set (TLE):
1 21152U 91019A   15187.53759072  .00000035  00000-0  21018-4 0  9995
2 21152 082.9258 028.9482 0042887 055.7668 000.5698 13.74183471219218

Source of the keplerian elements: AFSPC

N2YO: 326